{"data":{"norad_id":57907,"intl_designator":"2023-146S","name":"STARLINK-30482","alt_names":[],"object_type":"PAYLOAD","status":"ACTIVE","operator":null,"country":"US","launch_date":"2023-09-20","launch_site_code":"AFETR","launch_vehicle":null,"mission":null,"orbit_class":"UNKNOWN","rcs_meters":null,"size_class":null,"mass_kg":null,"dimensions":null,"purposes":["comms"],"wikipedia_slug":null,"has_3d_model":false,"image_url":null,"decayed_at":null,"tle_current":{"epoch":"2026-05-24T16:26:58.648992Z","epoch_age_seconds":109135,"freshness":"FRESH","line1":"1 57907U 23146S   26144.68540103  .00002321  00000+0  93825-4 0  9996","line2":"2 57907  43.0059 245.4641 0002312 286.4208  73.6389 15.27584791147620","mean_motion":15.27584791,"eccentricity":0.0002312,"inclination_deg":43.0059,"raan_deg":245.4641,"arg_perigee_deg":286.4208,"mean_anomaly_deg":73.6389,"bstar":9.3825e-5,"rev_number":14762,"period_min":94.266453062637,"perigee_km":481.44844719097,"apogee_km":484.62105300822,"semimajor_km":6861.1717500996,"source":"CELESTRAK","updated_at":"2026-05-25T13:38:18.454950Z"}}}